TIANMU-1 16

Last updated on Sat Aug 15 2026 00:02:41 GMT+0000 (Coordinated Universal Time)

1 58701U 24004B 26226.60510420 .00002822 00000+0 10838-3 0 9993 2 58701 97.4622 52.0070 0006985 135.1091 225.0714 15.27277560144692
UTC large
Height (km)
Speed (km/s)
/
Latitude / Longitude
Inclination (degrees)
Orbital Period (minutes)
Azimuth
Elevation
Range (km)
Doppler Factor

Next 0 passes for location: London (51.5072 / 0.1276)

No passes found over London.
TIANMU-1 16